Showing default

COSMOS 2538, 44424

Orbit data source: Space-Track

COSMOS 2538, 44424 is a payload satellite owned by TsNIIKhM (CIS) in SSO that was launched on Wed, 10 Jul 2019 UTC via a SOYUZ-2-1V launch vehicle from the Plesetsk Missile And Space Complex (PKMTR). Payloads include a variety of satellites, spacecraft, and rockets equipped with specific instruments for various scientific and technological missions. These include communications satellites like Starlink; space stations such as the ISS; scientific satellites like the Hubble; Earth observation satellites from companies like Planet Labs, Umbra, and HawkEye 360; GPS; miniature CubeSats for education and research; and military/defense satellites.

Loading next visibility...
COSMOS 2538 details
Identifier
44424, 2019-039D
Orbit
SSO
Last TLE update4 hours ago
Origin
Flag of CISTsNIIKhM (CIS)
ManufacturerTsNIIKhM
MissionOperational Defense Technology
Bus & MotorNIVELIR, Unknown motor
Mass~100 kg wet, ~100 kg dry
Launch date (UTC)
2019-07-10 (5 years ago)
Launch vehicle
SOYUZ-2-1V
Launch site
Plesetsk Missile And Space Complex (PKMTR)
Object type
Payload
Rocket body
Debris
Shape & HBRSphere, 0.8 m
Radar Cross Section0.503 m², Medium (>0.1 m² and < 1m²)

Expand to show TLE details & history

TLE from 4 hours ago
0 COSMOS 2538
1 44424U 19039D   24361.48398013  .00011627  00000-0  65794-3 0  9993
2 44424  97.6482  67.6217 0051892 105.2843 255.4131 15.12046552298408
Epoch: 2024-12-26T11:36Z
Definitive object data (Epoch: 2024-12-26T11:36:55.883Z)
Latitude-0.00005°
Longitude157.92614°
Altitude542.236 km
Speed7.586 km/s
True Right ascension04h 30m 29s
True Declination0° 00' 00"
Sunlit
Object was in full shadow at TLE epoch
Visualization TLE readout
Latitude-81.48208°
Longitude-84.98343°
Altitude592.194 km
Speed7.544 km/s
Apparent Right ascension03h 59m 49s
Apparent Declination-68° 50' 51"
Sunlit
Object is in daylight
Visualization observer readout
Local Sidereal Time15:19:49
Azimuth187.329° SSW
Elevation-60.574°
Doppler factor1
Orbital elements
Apogee altitude562.778 km
Perigee altitude491.115 km
Semi-major axis6,905.083 km
Eccentricity0.0051892
Inclination97.6482°
RAAN67.6217°
Arg. of periapsis105.2843°
True anomaly254.83858°
Mean anomaly255.4131°
Eccentric anomaly255.12574°
Mean motion3.78259 °/min
BSTAR0.00065794
Orbital period95.17 mins
Loading maneuver chart data...

COSMOS 2538 Visibility forecast

Observer location: undefined°, undefined

Span
Click to sort rows by Start time (UTC) header in descending order
Start Az.
Max El. time (UTC)
Max El. Az.
Max El.
End time (UTC)
End Az.
6 mins2024-12-26 16:56:43.928Z35.804° NE2024-12-26 16:59:43.928Z94.444° ESE26.305°2024-12-26 17:02:43.928Z157.216° SSE
5 mins2024-12-27 05:13:43.928Z213.664° SW2024-12-27 05:15:43.928Z269.929° W28.357°2024-12-27 05:18:43.928Z326.728° NNW
|